Погода в Собиртепе

Узбекистан     40°23′39″N   70°29′15″E
темп.,
°C
ветер,
м/с
пор.,
м/с
влажн.,
%
обл.,
%
осадки,
мм/ч
давл.,
гПа
погр.,
м
5 декабря, вс
вс523:00+11юз4746100 0.0 1019142
02:00+9зюз81251100 0.0 1020312
05:00+8зюз7115692 0.0 1021264
08:00+7зюз476328 0.0 1022162
11:00+11з124399 0.0 1023436
14:00+13з113590 0.0 1021813
17:00+11ююз124598 0.0 102215
20:00+9юз235893 0.0 102343
6 декабря, пн
пн623:00+7с01605 0.0 102311
02:00+6св22675 0.0 102312
05:00+5св22680 0.0 102416
08:00+5св34660 0.0 102560
11:00+10всв45510 0.0 1025494
14:00+12всв34410 0.0 1022722
17:00+10св33485 0.0 102327
20:00+8св225379 0.0 102412
7 декабря, вт
вт723:00+7всв2254100 0.0 102412
02:00+7св2253100 0.0 102414
05:00+7св2253100 0.0 102418
08:00+6всв3352100 0.0 102636
11:00+11всв443892 0.0 1026368
14:00+12всв3332100 0.0 1024481
17:00+10св2235100 0.0 102614
20:00+9св1137100 0.0 102710
8 декабря, ср
ср823:00+9в1138100 0.0 102710
02:00+8св2239100 0.0 102712
05:00+8всв2239100 0.0 102820
08:00+7св224185 0.0 103017
11:00+12всв332939 0.0 1030412
14:00+14всв33234 0.0 1028712
17:00+11всв33292 0.0 103018
20:00+9св11340 0.0 103110
9 декабря, чт
чт923:00+8всв22360 0.0 103210
02:00+7св33410 0.0 103230
05:00+6св34510 0.0 103339
08:00+5всв34550 0.0 103453
11:00+11всв57360 0.0 1033475
14:00+14всв57290 0.0 1030713
17:00+11св33360 0.0 103028
20:00+9всв33390 0.0 103019